2019-02-28 16:00,0.17,
2019-02-28 19:00,0.17,
2019-02-28 19:30,0.16,
2019-02-28 20:00,0.16,
2019-02-28 20:30,0.15,
2019-02-28 21:00,0.15,
2019-02-28 21:30,0.15,
2019-02-28 22:00,0.15,
2019-02-28 22:30,0.15,
2019-02-28 23:00,0.15,
2019-02-28 23:30,0.14,
2019-03-01 00:00,0.14,
2019-03-01 00:30,0.14,
2019-03-01 01:00,0.14,
2019-03-01 01:30,0.14,
2019-03-01 02:00,0.14,
2019-03-01 02:30,0.14,
2019-03-01 03:00,0.14,
2019-03-01 03:30,0.13,
2019-03-01 04:00,0.13,
2019-03-01 04:30,0.13,
2019-03-01 05:00,0.13,
2019-03-01 05:30,0.13,
2019-03-01 06:00,0.13,
2019-03-01 09:00,0.13,
2019-03-01 09:30,0.14,
2019-03-01 10:00,0.15,
2019-03-01 10:30,0.17,
2019-03-01 11:00,0.17,
2019-03-01 11:30,0.17,
2019-03-01 12:00,0.17,
2019-03-01 12:30,0.17,
2019-03-01 13:00,0.18,
2019-03-01 14:00,0.18,
2019-03-01 14:30,0.18,
2019-03-01 15:00,0.18,
2019-03-01 15:30,0.18,
2019-03-01 16:00,0.19,
2019-03-04 11:00,0.17,
2019-03-04 11:30,0.17,
2019-03-04 12:00,0.17,
2019-03-04 12:30,0.17,
2019-03-04 13:00,0.17,
2019-03-04 13:30,0.17,
2019-03-04 14:00,0.17,
2019-03-04 14:30,0.17,
2019-03-04 15:00,0.18,
2019-03-04 15:30,0.18,
2019-03-04 16:00,0.18,
2019-03-04 16:30,0.18,
2019-03-04 17:00,0.18,
2019-03-04 17:30,0.18,
2019-03-04 18:00,0.18,
2019-03-06 15:00,0.19,
2019-03-06 16:30,0.20,
2019-03-06 17:00,0.19,
2019-03-06 17:30,0.20,
2019-03-06 18:00,0.20,
2019-03-06 18:30,0.19,
2019-03-06 19:00,0.20,
2019-03-06 19:30,0.19,
2019-03-06 20:00,0.19,
2019-03-06 20:30,0.18,
2019-03-06 21:00,0.18,
2019-03-06 21:30,0.18,
2019-03-06 22:00,0.17,
2019-03-06 22:30,0.17,
2019-03-06 23:00,0.17,
2019-03-06 23:30,0.17,
2019-03-07 00:00,0.17,
2019-03-07 00:30,0.16,
2019-03-07 01:00,0.16,
2019-03-07 01:30,0.16,
2019-03-07 02:00,0.16,
2019-03-07 02:30,0.16,
2019-03-07 03:00,0.16,
2019-03-07 03:30,0.15,
2019-03-07 04:00,0.15,
2019-03-07 04:30,0.15,
2019-03-07 05:00,0.15,
2019-03-07 05:30,0.15,
2019-03-07 06:00,0.15,
2019-03-07 06:30,0.15,
2019-03-07 07:00,0.15,
2019-03-07 07:30,0.15,
2019-03-07 08:00,0.15,
2019-03-07 08:30,0.15,
2019-03-07 09:00,0.15,
2019-03-07 09:30,0.15,
2019-03-07 10:00,0.16,
2019-03-07 10:30,0.16,
2019-03-07 11:00,0.17,
2019-03-07 11:30,0.17,
2019-03-07 12:00,0.18,
2019-03-07 12:30,0.18,
2019-03-07 13:00,0.18,
2019-03-07 13:30,0.18,
2019-03-07 14:00,0.19,
2019-03-07 14:30,0.19,
2019-03-07 15:00,0.19,
2019-03-07 15:30,0.19,
2019-03-07 16:00,0.20,
2019-03-07 16:30,0.20,
2019-03-07 17:00,0.20,
2019-03-07 17:30,0.20,
2019-03-07 18:00,0.20,
2019-03-07 18:30,0.19,
2019-03-07 19:00,0.19,
2019-03-07 19:30,0.18,
2019-03-07 20:00,0.18,
2019-03-07 20:30,0.18,
2019-03-07 21:00,0.18,
2019-03-07 21:30,0.17,
2019-03-07 22:00,0.17,
2019-03-07 22:30,0.17,
2019-03-07 23:00,0.17,
2019-03-07 23:30,0.17,
2019-03-08 00:00,0.16,
2019-03-08 00:30,0.16,
2019-03-08 01:00,0.16,
2019-03-08 01:30,0.16,
2019-03-08 02:00,0.16,
2019-03-08 02:30,0.16,
2019-03-08 03:00,0.16,
2019-03-08 03:30,0.16,
2019-03-08 04:00,0.15,
2019-03-08 04:30,0.15,
2019-03-08 05:00,0.15,
2019-03-08 05:30,0.15,
2019-03-08 06:00,0.15,
2019-03-08 06:30,0.15,
2019-03-08 07:00,0.15,
2019-03-08 07:30,0.15,
2019-03-08 08:00,0.15,
2019-03-08 08:30,0.15,
2019-03-08 09:00,0.15,
2019-03-08 09:30,0.15,
2019-03-08 10:00,0.15,
2019-03-08 10:30,0.16,
2019-03-08 11:00,0.17,
2019-03-08 11:30,0.17,
2019-03-08 12:00,0.17,
2019-03-08 12:30,0.17,
2019-03-08 13:00,0.17,
2019-03-08 13:30,0.17,
2019-03-08 14:00,0.18,
2019-03-08 14:30,0.18,
2019-03-08 15:00,0.18,
2019-03-08 15:30,0.19,
2019-03-08 16:00,0.18,
2019-03-08 16:30,0.18,
2019-03-08 17:00,0.19,
2019-03-08 17:30,0.19,
2019-03-08 18:00,0.19,
2019-03-08 18:30,0.19,
2019-03-08 19:00,0.18,
2019-03-08 19:30,0.18,
2019-03-08 20:00,0.18,
2019-03-08 20:30,0.18,
2019-03-08 21:00,0.17,
2019-03-08 21:30,0.17,
2019-03-08 22:00,0.17,
2019-03-08 22:30,0.17,
2019-03-08 23:00,0.17,
2019-03-08 23:30,0.16,
2019-03-09 00:00,0.16,
2019-03-09 00:30,0.16,
2019-03-09 01:00,0.16,
2019-03-09 01:30,0.16,
2019-03-09 02:00,0.16,
2019-03-09 02:30,0.16,
2019-03-09 03:00,0.16,
2019-03-09 03:30,0.15,
2019-03-09 04:00,0.15,
2019-03-09 04:30,0.15,
2019-03-09 05:00,0.15,
2019-03-09 05:30,0.15,
2019-03-09 06:00,0.15,
2019-03-09 06:30,0.15,
2019-03-09 07:00,0.15,
2019-03-09 07:30,0.15,
2019-03-09 08:00,0.15,
2019-03-09 08:30,0.15,
2019-03-09 09:00,0.15,
2019-03-09 09:30,0.15,
2019-03-09 10:00,0.16,
2019-03-09 10:30,0.16,
2019-03-09 11:00,0.16,
2019-03-09 11:30,0.16,
2019-03-09 12:00,0.17,
2019-03-09 12:30,0.17,
2019-03-09 13:00,0.18,
2019-03-09 13:30,0.18,
2019-03-09 14:00,0.17,
2019-03-09 14:30,0.17,
2019-03-09 15:00,0.17,
2019-03-09 15:30,0.17,
2019-03-09 16:00,0.18,
2019-03-09 16:30,0.18,
2019-03-09 17:00,0.17,
2019-03-09 17:30,0.18,
2019-03-09 18:00,0.17,
2019-03-09 18:30,0.17,
2019-03-09 19:00,0.17,
2019-03-09 19:30,0.17,
2019-03-09 20:00,0.17,
2019-03-09 20:30,0.17,
2019-03-09 21:00,0.16,
2019-03-09 21:30,0.16,
2019-03-09 22:00,0.16,
2019-03-09 22:30,0.16,
2019-03-09 23:00,0.16,
2019-03-09 23:30,0.16,
2019-03-10 00:00,0.16,
2019-03-10 00:30,0.15,
2019-03-10 01:00,0.15,
2019-03-10 01:30,0.15,
2019-03-10 02:00,0.15,
2019-03-10 02:30,0.15,
2019-03-10 03:00,0.15,
2019-03-10 03:30,0.15,
2019-03-10 04:00,0.15,
2019-03-10 04:30,0.15,
2019-03-10 05:00,0.15,
2019-03-10 05:30,0.15,
2019-03-10 06:00,0.15,
2019-03-10 06:30,0.15,
2019-03-10 07:00,0.14,
2019-03-10 07:30,0.14,
2019-03-10 08:00,0.14,
2019-03-10 08:30,0.14,
2019-03-10 09:00,0.15,
2019-03-10 09:30,0.15,
2019-03-10 10:00,0.15,
2019-03-10 10:30,0.16,
2019-03-10 11:00,0.16,
2019-03-10 11:30,0.17,
2019-03-10 12:00,0.17,
2019-03-10 12:30,0.18,
2019-03-10 13:00,0.18,
2019-03-10 13:30,0.18,
2019-03-10 14:00,0.18,
2019-03-10 14:30,0.18,
2019-03-10 15:00,0.19,
2019-03-10 15:30,0.19,
2019-03-10 16:00,0.19,
2019-03-10 16:30,0.19,
2019-03-10 17:00,0.19,
2019-03-10 17:30,0.19,
2019-03-10 18:00,0.19,
2019-03-10 18:30,0.19,
2019-03-10 19:00,0.18,
2019-03-10 19:30,0.18,
2019-03-10 20:00,0.18,
2019-03-10 20:30,0.18,
2019-03-10 21:00,0.17,
2019-03-10 21:30,0.17,
2019-03-10 22:00,0.17,
2019-03-10 22:30,0.17,
2019-03-10 23:00,0.17,
2019-03-10 23:30,0.17,
2019-03-11 00:00,0.16,
2019-03-11 00:30,0.16,
2019-03-11 01:00,0.16,
2019-03-11 01:30,0.16,
2019-03-11 02:00,0.16,
2019-03-11 02:30,0.16,
2019-03-11 03:00,0.15,
2019-03-11 03:30,0.16,
2019-03-11 04:00,0.15,
2019-03-11 04:30,0.15,
2019-03-11 05:00,0.15,
2019-03-11 05:30,0.15,
2019-03-11 06:00,0.15,
2019-03-11 06:30,0.15,
2019-03-11 07:00,0.15,
2019-03-11 07:30,0.15,
2019-03-11 08:00,0.15,
2019-03-11 08:30,0.15,
2019-03-11 09:00,0.15,
2019-03-11 09:30,0.15,
2019-03-11 10:00,0.16,
2019-03-11 10:30,0.16,
2019-03-11 11:00,0.17,
2019-03-11 11:30,0.17,
2019-03-11 12:00,0.17,
2019-03-11 12:30,0.18,
2019-03-11 13:00,0.18,
2019-03-11 13:30,0.18,
2019-03-11 14:00,0.18,
2019-03-11 14:30,0.18,
2019-03-11 15:00,0.19,
2019-03-11 15:30,0.19,
2019-03-11 16:00,0.19,
2019-03-11 16:30,0.19,
2019-03-11 17:00,0.19,
2019-03-11 17:30,0.19,
2019-03-11 18:00,0.18,
2019-03-11 18:30,0.18,
2019-03-11 19:00,0.18,
2019-03-11 19:30,0.17,
2019-03-11 20:00,0.17,
2019-03-11 20:30,0.17,
2019-03-11 21:00,0.17,
2019-03-11 21:30,0.17,
2019-03-11 22:00,0.17,
2019-03-11 22:30,0.17,
2019-03-11 23:00,0.16,
2019-03-11 23:30,0.16,
2019-03-12 00:00,0.16,
2019-03-12 00:30,0.16,
2019-03-12 01:00,0.16,
2019-03-12 01:30,0.16,
2019-03-12 02:00,0.16,
2019-03-12 02:30,0.16,
2019-03-12 03:00,0.16,
2019-03-12 03:30,0.16,
2019-03-12 04:00,0.16,
2019-03-12 04:30,0.15,
2019-03-12 05:00,0.15,
2019-03-12 05:30,0.15,
2019-03-12 06:00,0.15,
2019-03-12 06:30,0.15,
2019-03-12 07:00,0.15,
2019-03-12 07:30,0.15,
2019-03-12 08:00,0.15,
2019-03-12 08:30,0.15,
2019-03-12 09:00,0.15,
2019-03-12 09:30,0.15,
2019-03-12 10:00,0.15,
2019-03-12 10:30,0.15,
2019-03-12 11:00,0.16,
2019-03-12 11:30,0.16,
2019-03-12 12:00,0.16,
2019-03-12 12:30,0.16,
2019-03-12 13:00,0.16,
2019-03-12 13:30,0.16,
2019-03-12 14:00,0.16,
2019-03-12 14:30,0.16,
2019-03-12 15:00,0.16,
2019-03-12 15:30,0.17,
2019-03-12 16:00,0.17,
2019-03-12 16:30,0.16,
2019-03-12 17:00,0.16,
2019-03-12 17:30,0.16,
2019-03-12 18:00,0.16,
2019-03-12 18:30,0.16,
2019-03-12 19:00,0.16,
2019-03-12 19:30,0.16,
2019-03-12 20:00,0.16,
2019-03-12 20:30,0.16,
2019-03-12 21:00,0.16,
2019-03-12 21:30,0.16,
2019-03-12 22:00,0.16,
2019-03-12 22:30,0.15,
2019-03-12 23:00,0.15,
2019-03-12 23:30,0.15,
2019-03-13 00:00,0.15,
2019-03-13 00:30,0.15,
2019-03-13 01:00,0.15,
2019-03-13 01:30,0.15,
2019-03-13 02:00,0.15,
2019-03-13 02:30,0.15,
2019-03-13 03:00,0.15,
2019-03-13 03:30,0.14,
2019-03-13 04:00,0.14,
2019-03-13 04:30,0.14,
2019-03-13 05:00,0.14,
2019-03-13 05:30,0.14,
2019-03-13 06:00,0.14,
2019-03-13 06:30,0.14,
2019-03-13 07:00,0.13,
2019-03-13 07:30,0.14,
2019-03-13 08:00,0.13,
2019-03-13 08:30,0.13,
2019-03-13 09:00,0.13,
2019-03-13 09:30,0.14,
2019-03-13 10:00,0.15,
2019-03-13 10:30,0.16,
2019-03-13 11:00,0.16,
2019-03-13 11:30,0.15,
2019-03-13 12:00,0.16,
2019-03-13 12:30,0.16,
2019-03-13 13:00,0.15,
2019-03-13 13:30,0.15,
2019-03-13 14:00,0.15,
2019-03-13 14:30,0.15,
2019-03-13 15:00,0.15,
2019-03-13 15:30,0.16,
2019-03-13 16:00,0.15,
2019-03-13 16:30,0.16,
2019-03-13 17:00,0.15,
2019-03-13 17:30,0.16,
2019-03-13 18:00,0.16,
2019-03-13 18:30,0.15,
2019-03-13 19:00,0.15,
2019-03-13 19:30,0.15,
2019-03-13 20:00,0.15,
2019-03-13 20:30,0.15,
2019-03-13 21:00,0.15,
2019-03-13 21:30,0.14,
2019-03-13 22:00,0.14,
2019-03-13 22:30,0.14,
2019-03-13 23:00,0.14,
2019-03-13 23:30,0.13,
2019-03-14 00:00,0.13,
2019-03-14 00:30,0.13,
2019-03-14 01:00,0.13,
2019-03-14 01:30,0.13,
2019-03-14 02:00,0.13,
2019-03-14 02:30,0.13,
2019-03-14 03:00,0.13,
2019-03-14 03:30,0.13,
2019-03-14 04:00,0.13,
2019-03-14 04:30,0.12,
2019-03-14 05:00,0.13,
2019-03-14 05:30,0.12,
2019-03-14 06:00,0.12,
2019-03-14 06:30,0.12,
2019-03-14 07:00,0.12,
2019-03-14 07:30,0.12,
2019-03-14 08:00,0.12,
2019-03-14 08:30,0.12,
2019-03-14 09:00,0.12,
2019-03-14 09:30,0.12,
2019-03-14 10:00,0.14,
2019-03-14 10:30,0.16,
2019-03-14 11:00,0.16,
2019-03-14 11:30,0.16,
2019-03-14 12:00,0.16,
2019-03-14 12:30,0.16,
2019-03-14 13:00,0.16,
2019-03-14 13:30,0.17,
2019-03-14 14:00,0.17,
2019-03-14 14:30,0.17,
2019-03-14 15:00,0.16,
2019-03-27 13:00,0.16,
2019-03-27 13:30,0.17,
2019-04-01 07:00,0.10,
2019-04-01 07:30,0.06,
2019-04-01 08:00,0.06,
2019-04-01 08:30,0.05,
2019-04-01 09:00,0.06,
2019-04-01 09:30,0.06,
2019-04-01 10:00,0.06,
2019-04-01 10:30,0.06,
2019-04-01 11:00,0.06,
2019-04-01 11:30,0.06,
2019-04-01 12:00,0.06,
2019-04-01 12:30,0.06,
2019-04-01 13:00,0.06,
2019-04-01 13:30,0.05,
2019-04-01 14:00,0.05,
2019-04-01 14:30,0.05,
2019-04-01 15:00,0.05,
2019-04-01 15:30,0.05,
2019-04-01 16:00,0.05,
2019-04-01 16:30,0.05,
2019-04-01 17:00,0.06,
2019-04-01 17:30,0.05,
2019-04-01 18:00,0.05,
2019-04-01 18:30,0.05,
2019-04-01 19:00,0.05,
2019-04-01 19:30,0.05,
2019-04-01 20:00,0.05,
2019-04-01 20:30,0.05,
2019-04-01 21:00,0.05,
2019-04-01 21:30,0.06,
2019-04-01 22:00,0.05,
2019-04-01 22:30,0.05,
2019-04-01 23:00,0.06,
2019-04-01 23:30,0.05,
2019-04-02 00:00,0.05,
2019-04-02 00:30,0.05,
2019-04-02 01:00,0.05,
2019-04-02 01:30,0.05,
2019-04-02 02:00,0.05,
2019-04-02 02:30,0.05,
2019-04-02 03:00,0.05,
2019-04-02 03:30,0.05,
2019-04-02 04:00,0.06,
2019-04-02 04:30,0.06,
2019-04-02 05:00,0.05,
2019-04-02 05:30,0.05,
2019-04-02 06:00,0.05,
2019-04-02 06:30,0.05,
2019-04-02 07:00,0.05,
2019-04-02 07:30,0.06,
2019-04-02 08:00,0.05,
2019-04-02 08:30,0.06,
2019-04-02 09:00,0.06,
2019-04-02 09:30,0.06,
2019-04-02 10:00,0.06,
2019-04-02 10:30,0.06,
2019-04-02 11:00,0.06,
2019-04-02 11:30,0.06,
2019-04-02 12:00,0.06,
2019-04-02 12:30,0.06,
2019-04-02 13:00,0.06,
2019-04-02 13:30,0.06,
2019-04-02 14:00,0.06,
2019-04-02 14:30,0.06,
2019-04-02 15:00,0.06,
2019-04-02 15:30,0.06,
2019-04-02 16:00,0.05,
2019-04-02 16:30,0.05,
2019-04-02 17:00,0.07,
2019-04-02 17:30,0.05,
2019-04-02 18:00,0.06,
2019-04-02 18:30,0.05,
2019-04-02 19:00,0.05,
2019-04-02 19:30,0.05,
2019-04-02 20:00,0.05,
2019-04-02 20:30,0.08,
2019-04-02 21:00,0.05,
2019-04-02 21:30,0.06,
2019-04-02 22:00,0.05,
2019-04-02 22:30,0.05,
2019-04-02 23:00,0.06,
2019-04-02 23:30,0.05,
2019-04-03 00:00,0.08,
2019-04-03 00:30,0.08,
2019-04-03 01:00,0.06,
2019-04-03 01:30,0.05,
2019-04-03 02:00,0.05,
2019-04-03 02:30,0.07,
2019-04-03 03:00,0.07,
2019-04-03 03:30,0.07,
2019-04-03 04:00,0.05,
2019-04-03 04:30,0.06,
2019-04-03 05:00,0.05,
2019-04-03 05:30,0.05,
2019-04-03 06:00,0.06,
2019-04-03 06:30,0.05,
2019-04-03 07:00,0.06,
2019-04-03 07:30,0.06,
2019-04-03 08:00,0.05,
2019-04-03 08:30,0.05,
2019-04-03 09:00,0.05,
2019-04-03 09:30,0.05,
2019-04-03 10:00,0.07,
2019-04-03 10:30,0.06,
2019-04-03 11:00,0.06,
2019-04-03 11:30,0.05,
2019-04-03 12:00,0.05,
2019-04-03 12:30,0.05,
2019-04-03 13:00,0.06,
2019-04-03 13:30,0.06,
2019-04-03 14:00,0.06,
2019-04-03 14:30,0.07,
2019-04-03 15:00,0.06,
2019-04-03 15:30,0.05,
2019-04-03 16:00,0.05,
2019-04-03 16:30,0.05,
2019-04-03 17:00,0.07,
2019-04-03 17:30,0.05,
2019-04-03 18:00,0.05,
2019-04-03 18:30,0.05,
2019-04-03 19:00,0.07,
2019-04-03 19:30,0.05,
2019-04-03 20:00,0.06,
2019-04-03 20:30,0.05,
2019-04-03 21:00,0.08,
2019-04-03 21:30,0.07,
2019-04-03 22:00,0.05,
2019-04-03 22:30,0.05,
2019-04-03 23:00,0.06,
2019-04-03 23:30,0.05,
2019-04-04 00:00,0.07,
2019-04-04 00:30,0.05,
2019-04-04 01:00,0.06,
2019-04-04 01:30,0.07,
2019-04-04 02:00,0.05,
2019-04-04 02:30,0.05,
2019-04-04 03:00,0.05,
2019-04-04 03:30,0.06,
2019-04-04 04:00,0.06,
2019-04-04 04:30,0.08,
2019-04-04 05:00,0.05,
2019-04-04 05:30,0.06,
2019-04-04 06:00,0.06,
2019-04-04 06:30,0.06,
2019-04-04 07:00,0.06,
2019-04-04 07:30,0.05,
2019-04-04 08:00,0.05,
2019-04-04 08:30,0.07,
2019-04-04 09:00,0.05,
2019-04-04 09:30,0.06,
2019-04-04 10:00,0.05,
2019-04-04 10:30,0.05,
2019-04-04 11:00,0.06,
2019-04-04 11:30,0.07,
2019-04-04 12:00,0.05,
2019-04-04 12:30,0.05,
2019-04-04 13:00,0.06,
2019-04-04 13:30,0.05,
2019-04-04 14:00,0.06,
2019-04-04 14:30,0.08,
2019-04-04 15:00,0.06,
2019-04-04 15:30,0.05,
2019-04-04 16:00,0.06,
2019-04-04 16:30,0.06,
2019-04-04 17:00,0.05,
2019-04-04 17:30,0.05,
2019-04-04 18:00,0.06,
2019-04-04 18:30,0.07,
2019-04-04 19:00,0.05,
2019-04-04 19:30,0.09,
2019-04-04 20:00,0.05,
2019-04-04 20:30,0.06,
2019-04-04 21:00,0.05,
2019-04-04 21:30,0.05,
2019-04-04 22:00,0.05,
2019-04-04 22:30,0.08,
2019-04-04 23:00,0.05,
2019-04-04 23:30,0.05,
2019-04-05 00:00,0.05,
2019-04-05 00:30,0.05,
2019-04-05 01:00,0.06,
2019-04-05 01:30,0.05,
2019-04-05 02:00,0.06,
2019-04-05 02:30,0.05,
2019-04-05 03:00,0.05,
2019-04-05 03:30,0.05,
2019-04-05 04:00,0.05,
2019-04-05 04:30,0.06,
2019-04-05 05:00,0.06,
2019-04-05 05:30,0.07,
2019-04-05 06:00,0.06,
2019-04-05 06:30,0.05,
2019-04-05 07:00,0.05,
2019-04-05 07:30,0.06,
2019-04-05 08:00,0.07,
2019-04-05 08:30,0.06,
2019-04-05 09:00,0.07,
2019-04-05 09:30,0.06,
2019-04-05 10:00,0.07,
2019-04-05 10:30,0.07,
2019-04-05 11:00,0.07,
2019-04-05 11:30,0.07,
2019-04-05 12:00,0.06,
2019-04-05 12:30,0.05,
2019-04-05 13:00,0.05,
2019-04-05 13:30,0.06,
2019-04-05 14:00,0.05,
2019-04-05 14:30,0.06,
2019-04-05 15:00,0.06,
2019-04-05 15:30,0.05,
2019-04-05 16:00,0.06,
2019-04-05 16:30,0.05,
2019-04-05 17:00,0.05,
2019-04-05 17:30,0.05,
2019-04-05 18:00,0.07,
2019-04-05 18:30,0.05,
2019-04-05 19:00,0.05,
2019-04-05 19:30,0.05,
2019-04-05 20:00,0.05,
2019-04-05 20:30,0.05,
2019-04-05 21:00,0.05,
2019-04-05 21:30,0.06,
2019-04-05 22:00,0.05,
2019-04-05 22:30,0.05,
2019-04-05 23:00,0.05,
2019-04-05 23:30,0.05,
2019-04-06 00:00,0.07,
2019-04-06 00:30,0.05,
2019-04-06 01:00,0.05,
2019-04-06 01:30,0.05,
2019-04-06 02:00,0.05,
2019-04-06 02:30,0.07,
2019-04-06 03:00,0.05,
2019-04-06 03:30,0.07,
2019-04-06 04:00,0.05,
2019-04-06 04:30,0.05,
2019-04-06 05:00,0.05,
2019-04-06 05:30,0.05,
2019-04-06 06:00,0.07,
2019-04-06 06:30,0.06,
2019-04-06 07:00,0.06,
2019-04-06 07:30,0.06,
2019-04-06 08:00,0.05,
2019-04-06 08:30,0.05,
2019-04-06 09:00,0.05,
2019-04-06 09:30,0.05,
2019-04-06 10:00,0.07,
2019-04-06 10:30,0.06,
2019-04-06 11:00,0.06,
2019-04-06 11:30,0.06,
2019-04-06 12:00,0.06,
2019-04-06 12:30,0.06,
2019-04-06 13:00,0.05,
2019-04-06 13:30,0.06,
2019-04-06 14:00,0.05,
2019-04-06 14:30,0.05,
2019-04-06 15:00,0.05,
2019-04-06 15:30,0.05,
2019-04-06 16:00,0.06,
2019-04-06 16:30,0.05,
2019-04-06 17:00,0.06,
2019-04-06 17:30,0.05,
2019-04-06 18:00,0.06,
2019-04-06 18:30,0.09,
2019-04-06 19:00,0.07,
2019-04-06 19:30,0.08,
2019-04-06 20:00,0.05,
2019-04-06 20:30,0.05,
2019-04-06 21:00,0.06,
2019-04-06 21:30,0.08,
2019-04-06 22:00,0.05,
2019-04-06 22:30,0.05,
2019-04-06 23:00,0.05,
2019-04-06 23:30,0.06,
2019-04-07 00:00,0.05,
2019-04-07 00:30,0.05,
2019-04-07 01:00,0.07,
2019-04-07 01:30,0.06,
2019-04-07 02:00,0.05,
2019-04-07 02:30,0.05,
2019-04-07 03:00,0.05,
2019-04-07 03:30,0.07,
2019-04-07 04:00,0.05,
2019-04-07 04:30,0.06,
2019-04-07 05:00,0.06,
2019-04-07 05:30,0.05,
2019-04-07 06:00,0.05,
2019-04-07 06:30,0.06,
2019-04-07 07:00,0.05,
2019-04-07 07:30,0.07,
2019-04-07 08:00,0.05,
2019-04-07 08:30,0.05,
2019-04-07 09:00,0.06,
2019-04-07 09:30,0.06,
2019-04-07 10:00,0.06,
2019-04-07 10:30,0.06,
2019-04-07 11:00,0.05,
2019-04-07 11:30,0.06,
2019-04-07 12:00,0.06,
2019-04-07 12:30,0.05,
2019-04-07 13:00,0.05,
2019-04-07 13:30,0.05,
2019-04-07 14:00,0.06,
2019-04-07 14:30,0.05,
2019-04-07 15:00,0.06,
2019-04-07 15:30,0.05,
2019-04-07 16:00,0.05,
2019-04-07 16:30,0.05,
2019-04-07 17:00,0.05,
2019-04-07 17:30,0.06,
2019-04-07 18:00,0.06,
2019-04-07 18:30,0.09,
2019-04-07 19:00,0.05,
2019-04-07 19:30,0.05,
2019-04-07 20:00,0.05,
2019-04-07 20:30,0.05,
2019-04-07 21:00,0.05,
2019-04-07 21:30,0.06,
2019-04-07 22:00,0.08,
2019-04-07 22:30,0.08,
2019-04-07 23:00,0.07,
2019-04-07 23:30,0.05,
2019-04-08 00:00,0.05,
2019-04-08 00:30,0.07,
2019-04-08 01:00,0.08,
2019-04-08 01:30,0.05,
2019-04-08 02:00,0.05,
2019-04-08 02:30,0.06,
2019-04-08 03:00,0.08,
2019-04-08 03:30,0.05,
2019-04-08 04:00,0.05,
2019-04-08 04:30,0.05,
2019-04-08 05:00,0.07,
2019-04-08 05:30,0.05,
2019-04-08 06:00,0.06,
2019-04-08 06:30,0.05,
2019-04-08 07:00,0.07,
2019-04-08 07:30,0.05,
2019-04-08 08:00,0.07,
2019-04-08 08:30,0.08,
2019-04-08 09:00,0.05,
2019-04-08 09:30,0.06,
2019-04-08 10:00,10.38,
2019-04-08 10:30,10.38,
2019-04-08 11:00,10.38,
2019-04-08 11:30,10.38,
2019-04-08 12:00,10.38,
2019-04-08 12:30,10.38,
2019-04-08 13:00,10.38,
2019-04-08 14:15,10.38,
2019-04-08 14:30,10.38,
2019-04-08 14:45,10.38,
2019-04-08 15:00,10.38,
2019-04-08 15:15,10.38,
2019-04-08 15:30,10.38,
2019-04-08 15:45,10.38,
2019-04-08 16:00,10.38,
2019-04-08 16:15,10.38,
2019-04-08 16:30,10.38,
2019-04-08 16:45,10.38,
2019-04-08 17:00,10.38,
2019-04-08 17:15,10.38,
2019-04-08 17:30,10.38,
2019-04-08 17:45,10.38,
2019-04-08 18:00,10.38,
2019-04-08 18:15,10.38,
2019-04-08 18:30,10.38,
2019-04-08 18:45,10.38,
2019-04-08 19:00,10.38,
2019-04-08 19:15,10.38,
2019-04-08 19:30,10.38,
2019-04-08 19:45,10.38,
2019-04-08 20:00,10.38,
2019-04-08 20:15,10.38,
2019-04-08 20:30,10.38,
2019-04-08 20:45,10.38,
2019-04-08 21:00,10.38,
2019-04-08 21:15,10.38,
2019-04-08 21:30,10.38,
2019-04-08 21:45,10.38,
2019-04-08 22:00,10.38,
2019-04-08 22:15,10.38,
2019-04-08 22:30,10.38,
2019-04-08 22:45,10.38,
2019-04-08 23:00,10.38,
2019-04-08 23:15,10.38,
2019-04-08 23:30,10.38,
2019-04-08 23:45,10.38,
2019-04-09 00:00,10.38,
2019-04-09 00:15,10.38,
2019-04-09 00:30,10.38,
2019-04-09 00:45,10.38,
2019-04-09 01:00,10.38,
2019-04-09 01:15,10.38,
2019-04-09 01:30,10.38,
2019-04-09 01:45,10.38,
2019-04-09 02:00,10.38,
2019-04-09 02:15,10.38,
2019-04-09 02:30,10.38,
2019-04-09 02:45,10.38,
2019-04-09 03:00,10.38,
2019-04-09 03:15,10.38,
2019-04-09 03:30,10.38,
2019-04-09 03:45,10.38,
2019-04-09 04:00,10.38,
2019-04-09 04:15,10.38,
2019-04-09 04:30,10.38,
2019-04-09 04:45,10.38,
2019-04-09 05:00,10.38,
2019-04-09 05:15,10.38,
2019-04-09 05:30,10.38,
2019-04-09 05:45,10.38,
2019-04-09 06:00,10.38,
2019-04-09 06:15,10.38,
2019-04-09 06:30,10.38,
2019-04-09 06:45,10.38,
2019-04-09 07:00,10.38,
2019-04-09 07:15,10.38,
2019-04-09 07:30,10.38,
2019-04-09 07:45,10.38,
2019-04-09 08:00,10.38,
2019-04-09 10:45,10.38,
2019-04-09 11:00,10.38,
2019-04-09 11:15,10.38,
2019-04-09 11:30,10.38,
2019-04-09 11:45,10.38,
2019-04-09 12:00,10.38,
2019-04-09 12:15,10.38,
2019-04-09 12:30,10.38,
2019-04-09 12:45,10.38,
2019-04-09 13:00,10.38,
2019-04-09 13:15,10.38,
2019-04-09 13:30,10.38,
2019-04-09 13:45,10.38,
2019-04-09 14:00,10.38,
2019-04-09 14:15,10.38,
2019-04-09 14:30,10.38,
2019-04-09 14:45,10.38,
2019-04-09 15:00,10.38,
2019-04-09 15:15,10.38,
2019-04-09 15:30,10.38,
2019-04-09 15:45,10.38,
2019-04-09 16:00,10.38,
2019-04-09 16:15,10.38,
2019-04-09 16:30,10.38,
2019-04-09 16:45,10.38,
2019-04-09 17:00,10.38,
2019-04-09 17:15,10.38,
2019-04-09 17:30,10.38,
2019-04-09 17:45,10.38,
2019-04-09 18:00,10.38,
2019-04-09 20:45,10.38,
2019-04-09 21:00,10.38,
2019-04-09 21:15,10.38,
2019-04-09 21:30,10.38,
2019-04-09 21:45,10.38,
2019-04-09 22:00,10.38,
2019-04-09 22:15,10.38,
2019-04-09 22:30,10.38,
2019-04-09 22:45,10.38,
2019-04-09 23:00,10.38,
2019-04-09 23:15,10.38,
2019-04-09 23:30,10.38,
2019-04-09 23:45,10.38,
2019-04-10 00:00,10.38,
2019-04-10 00:15,10.38,
2019-04-10 00:30,10.38,
2019-04-10 00:45,10.38,
2019-04-10 01:00,10.38,
2019-04-10 01:15,10.38,
2019-04-10 01:30,10.38,
2019-04-10 01:45,10.38,
2019-04-10 02:00,10.38,
2019-04-10 02:15,10.38,
2019-04-10 02:30,10.38,
2019-04-10 02:45,10.38,
2019-04-10 03:00,10.38,
2019-04-10 03:15,10.38,
2019-04-10 03:30,10.38,
2019-04-10 03:45,10.38,
2019-04-10 04:00,10.38,
2019-04-10 04:15,10.38,
2019-04-10 04:30,10.38,
2019-04-10 04:45,10.38,
2019-04-10 05:00,10.38,
2019-04-10 05:15,10.38,
2019-04-10 05:30,10.38,
2019-04-10 05:45,10.38,
2019-04-10 06:00,10.38,
2019-04-10 06:15,10.38,
2019-04-10 06:30,10.38,
2019-04-10 06:45,10.38,
2019-04-10 07:00,10.38,
2019-04-10 07:15,10.38,
2019-04-10 07:30,10.38,
2019-04-10 07:45,10.38,
2019-04-10 08:00,10.38,
2019-04-10 08:15,10.38,
2019-04-10 08:30,10.38,
2019-04-10 08:45,10.38,
2019-04-10 09:00,10.38,
2019-04-10 09:15,10.38,
2019-04-10 09:30,10.38,
2019-04-10 09:45,10.38,
2019-04-10 10:00,10.38,
2019-04-10 10:15,10.38,
2019-04-10 10:30,10.38,
2019-04-10 10:45,10.38,
2019-04-10 11:00,10.38,
2019-04-10 11:15,10.38,
2019-04-10 11:30,10.38,
2019-04-10 11:45,10.38,
2019-04-10 12:00,10.38,
2019-04-10 12:15,10.38,
2019-04-10 12:30,10.38,
2019-04-10 12:45,10.38,
2019-04-10 13:00,10.38,
2019-04-10 13:15,10.38,
2019-04-10 13:30,10.38,
2019-04-10 13:45,10.38,
2019-04-10 14:00,10.38,
2019-04-10 14:15,10.38,
2019-04-10 14:30,10.38,
2019-04-10 14:45,10.38,
2019-04-10 15:00,10.38,
2019-04-10 15:15,10.38,
2019-04-10 15:30,10.38,
2019-04-10 15:45,10.38,
2019-04-10 16:00,10.38,
2019-04-10 16:15,10.38,
2019-04-10 16:30,10.38,
2019-04-10 16:45,10.38,
2019-04-10 17:00,10.38,
2019-04-10 17:15,10.38,
2019-04-10 17:30,10.38,
2019-04-10 17:45,10.38,
2019-04-10 18:00,10.38,
2019-04-10 18:15,10.38,
2019-04-10 18:30,10.38,
2019-04-10 18:45,10.38,
2019-04-10 19:00,10.38,
2019-04-10 19:15,10.38,
2019-04-10 19:30,10.38,
2019-04-10 19:45,10.38,
2019-04-10 20:00,10.38,
2019-04-10 20:15,10.38,
2019-04-10 20:30,10.38,
2019-04-10 20:45,10.38,
2019-04-10 21:00,10.38,
2019-04-10 21:15,10.38,
2019-04-10 21:30,10.38,
2019-04-10 21:45,10.38,
2019-04-10 22:00,10.38,